Location: LDNL
(36.4545°S, 141.6685°E)
Time: 11:26:52
(UTC+10:00)

A-11 Canister half - All Passes

Search period start: 08 August 2022 00:00
Search period end: 18 August 2022 00:00
Orbit: 1514 x 1686 km, 47.2° (Epoch: 07 August)

Date Brightness Start Highest point End Pass type
(mag) Time Alt. Az. Time Alt. Az. Time Alt. Az.
08 Aug - 00:04:45 10° NW 00:14:44 85° NE 00:24:23 10° ESE night (unlit)
08 Aug - 02:11:03 10° W 02:20:26 49° SSW 02:29:34 10° ESE visible
08 Aug - 04:17:57 10° WSW 04:27:07 47° S 04:36:02 10° E visible
08 Aug - 06:23:25 10° WSW 06:32:54 88° SSE 06:42:12 10° NE visible
08 Aug - 08:29:22 10° WSW 08:36:58 29° NW 08:44:31 10° N daylight
08 Aug - 21:40:10 10° N 21:47:45 25° NE 21:55:09 10° ESE visible
08 Aug - 23:41:48 10° NW 23:51:47 81° NE 00:01:27 10° ESE night (unlit)
09 Aug - 01:47:57 10° W 01:57:25 50° SSW 02:06:36 10° ESE visible
09 Aug - 03:54:56 10° WSW 04:04:06 46° S 04:13:00 10° E visible
09 Aug - 06:00:28 10° WSW 06:09:59 84° SSE 06:19:16 10° ENE visible
09 Aug - 08:06:17 10° WSW 08:14:07 31° NW 08:21:54 10° N daylight
09 Aug - 21:17:38 10° N 21:24:53 23° NE 21:31:59 10° E visible
09 Aug - 23:18:51 10° NW 23:28:51 78° NE 23:38:32 10° ESE night (unlit)
10 Aug - 01:24:52 10° W 01:34:25 52° SSW 01:43:39 10° ESE visible
10 Aug - 03:31:54 10° WSW 03:41:05 45° S 03:49:58 10° E visible
10 Aug - 05:37:31 10° WSW 05:47:03 81° SSE 05:56:20 10° ENE visible
10 Aug - 07:43:13 10° WSW 07:51:17 34° NW 07:59:16 10° N daylight
10 Aug - 20:55:08 10° N 21:02:01 21° NE 21:08:47 10° E visible
10 Aug - 22:55:57 10° NW 23:05:55 74° NE 23:15:35 10° ESE night (unlit)
11 Aug - 01:01:47 10° W 01:11:24 53° SSW 01:20:42 10° ESE visible
11 Aug - 03:08:52 10° WSW 03:18:03 45° S 03:26:57 10° ESE visible
11 Aug - 05:14:33 10° SW 05:24:06 77° SSE 05:33:24 10° ENE visible
11 Aug - 07:20:11 10° WSW 07:28:26 37° NW 07:36:36 10° NNE daylight
11 Aug - 20:32:41 10° NNE 20:39:10 19° NE 20:45:32 10° E visible
11 Aug - 22:33:01 10° NW 22:42:59 70° NE 22:52:39 10° ESE visible
12 Aug - 00:38:41 10° W 00:48:23 55° SSW 00:57:46 10° ESE night (unlit)
12 Aug - 02:45:49 10° WSW 02:55:02 45° S 03:03:56 10° ESE visible
12 Aug - 04:51:36 10° SW 05:01:11 74° SSE 05:10:27 10° ENE visible
12 Aug - 06:57:09 10° WSW 07:05:35 39° NW 07:13:55 10° NNE daylight
12 Aug - 20:10:18 10° NNE 20:16:18 18° NE 20:22:13 10° E visible
12 Aug - 22:10:08 10° NW 22:20:03 66° NE 22:29:42 10° ESE visible
13 Aug - 00:15:37 10° W 00:25:22 57° SSW 00:34:49 10° ESE night (unlit)
13 Aug - 02:22:46 10° WSW 02:31:59 44° S 02:40:55 10° ESE visible
13 Aug - 04:28:38 10° SW 04:38:13 71° SSE 04:47:30 10° ENE visible
13 Aug - 06:34:06 10° WSW 06:42:44 42° NW 06:51:13 10° NNE visible
13 Aug - 19:48:00 10° NNE 19:53:27 16° ENE 19:58:50 10° E visible
13 Aug - 21:47:14 10° NW 21:57:08 63° NE 22:06:45 10° ESE visible
13 Aug - 23:52:32 10° W 00:02:21 59° SSW 00:11:52 10° ESE night (unlit)
14 Aug - 01:59:42 10° WSW 02:08:57 44° S 02:17:54 10° ESE visible
14 Aug - 04:05:40 10° SW 04:15:15 68° SSE 04:24:32 10° ENE visible
14 Aug - 06:11:06 10° WSW 06:19:52 45° NW 06:28:29 10° NNE visible
14 Aug - 19:25:49 10° NNE 19:30:36 14° ENE 19:35:21 10° E visible
14 Aug - 21:24:23 10° NNW 21:34:13 59° NE 21:43:47 10° ESE visible
14 Aug - 23:29:28 10° WNW 23:39:21 61° SSW 23:48:56 10° ESE visible
15 Aug - 01:36:38 10° WSW 01:45:55 44° S 01:54:53 10° ESE visible
15 Aug - 03:42:41 10° SW 03:52:18 66° SSE 04:01:33 10° ENE visible
15 Aug - 05:48:05 10° WSW 05:57:01 49° NW 06:05:45 10° NNE visible
15 Aug - 19:03:48 10° NE 19:07:45 13° ENE 19:11:41 10° E visible
15 Aug - 21:01:32 10° NNW 21:11:17 56° NE 21:20:49 10° ESE visible
15 Aug - 23:06:25 10° WNW 23:16:21 63° SSW 23:26:00 10° ESE visible
16 Aug - 01:13:33 10° WSW 01:22:52 44° S 01:31:52 10° ESE visible
16 Aug - 03:19:43 10° WSW 03:29:19 63° SSE 03:38:35 10° ENE visible
16 Aug - 05:25:05 10° WSW 05:34:09 52° NW 05:42:59 10° NNE visible
16 Aug - 07:36:21 10° WNW 07:37:22 10° WNW 07:38:23 10° NW daylight
16 Aug - 18:42:06 10° NE 18:44:55 11° ENE 18:47:42 10° ENE visible
16 Aug - 20:38:41 10° NNW 20:48:23 52° NE 20:57:51 10° ESE visible
16 Aug - 22:43:21 10° WNW 22:53:21 65° SSW 23:03:04 10° ESE visible
17 Aug - 00:50:29 10° WSW 00:59:50 44° S 01:08:51 10° ESE night (unlit)
17 Aug - 02:56:44 10° WSW 03:06:20 61° SSE 03:15:35 10° ENE visible
17 Aug - 05:02:05 10° WSW 05:11:16 55° NW 05:20:12 10° NNE visible
17 Aug - 07:11:40 10° WNW 07:14:34 12° WNW 07:17:28 10° NW daylight
17 Aug - 20:15:53 10° NNW 20:25:28 49° NE 20:34:51 10° ESE visible
17 Aug - 22:20:18 10° WNW 22:30:21 68° SSW 22:40:07 10° SE visible
